sat.trackr.live / text

‹ back to catalog

STARLINK-37051

NORAD 68080 · 2026-042M

PAYLOAD ACTIVE UNKNOWN

§ Identity

Operator
Country
US
Launch date
2026-03-04
Launch site
AFETR
Launch vehicle
Mass (kg)
RCS (m²)

Purposes: comms

External: N2YO · Heavens-Above · Gunter

§ Orbital elements

Epoch: 2026-05-25T03:07:36.211008Z

Period
93.85 min
Inclination
53.1582°
Eccentricity
0.0001292
Mean motion
15.34405792 rev/d
Perigee alt
461.8 km
Apogee alt
463.6 km
Semi-major
6,840.8 km
B*
3.8881e-4
RAAN
181.1428°
Arg perigee
93.3076°
Mean anomaly
266.8075°
Rev number
1,404

§ Raw data

STARLINK-370511 68080U 26042M   26145.13028022  .00012785  00000+0  38881-3 0  99952 68080  53.1582 181.1428 0001292  93.3076 266.8075 15.34405792 14048

JSON: /api/v1/satellites/68080 · /tle

For live sub-satellite position, see the globe view (requires WebGL).

§ Visibility from observer

Set your observer location to see the next 7 days of passes ≥ 10°. The values pass through the URL so the page stays shareable.

No JS? Fill the form by hand. The geolocation button needs JavaScript.